Year,Month,Day,Hour,Minute,Value (Times are PST for temperature in C)
2011,05,16,00,00,9.90
2011,05,16,00,02,9.90
2011,05,16,00,04,9.90
2011,05,16,00,05,9.90
2011,05,16,00,06,9.80
2011,05,16,00,07,9.80
2011,05,16,00,08,9.80
2011,05,16,00,10,9.80
2011,05,16,00,11,9.80
2011,05,16,00,12,9.80
2011,05,16,00,13,9.80
2011,05,16,00,15,9.80
2011,05,16,00,16,9.80
2011,05,16,00,17,9.80
2011,05,16,00,18,9.80
2011,05,16,00,19,9.80
2011,05,16,00,20,9.80
2011,05,16,00,21,9.80
2011,05,16,00,22,9.80
2011,05,16,00,23,9.80
2011,05,16,00,25,9.80
2011,05,16,00,26,9.80
2011,05,16,00,27,9.80
2011,05,16,00,28,9.80
2011,05,16,00,30,9.80
2011,05,16,00,31,9.80
2011,05,16,00,32,9.80
2011,05,16,00,33,9.80
2011,05,16,00,35,9.80
2011,05,16,00,36,9.80
2011,05,16,00,37,9.80
2011,05,16,00,38,9.80
2011,05,16,00,40,9.80
2011,05,16,00,41,9.80
2011,05,16,00,42,9.80
2011,05,16,00,43,9.80
2011,05,16,00,45,9.80
2011,05,16,00,46,9.80
2011,05,16,00,47,9.80
2011,05,16,00,48,9.80
2011,05,16,00,50,9.80
2011,05,16,00,51,9.80
2011,05,16,00,52,9.80
2011,05,16,00,53,9.70
2011,05,16,00,55,9.70
2011,05,16,00,56,9.70
2011,05,16,00,57,9.70
2011,05,16,00,58,9.70
2011,05,16,01,00,9.60
2011,05,16,01,01,9.60
2011,05,16,01,02,9.50
2011,05,16,01,03,9.50
2011,05,16,01,05,9.40
2011,05,16,01,06,9.40
2011,05,16,01,07,9.40
2011,05,16,01,08,9.30
2011,05,16,01,10,9.30
2011,05,16,01,11,9.30
2011,05,16,01,12,9.30
2011,05,16,01,13,9.30
2011,05,16,01,15,9.30
2011,05,16,01,16,9.30
2011,05,16,01,17,9.30
2011,05,16,01,18,9.30
2011,05,16,01,20,9.30
2011,05,16,01,21,9.30
2011,05,16,01,22,9.30
2011,05,16,01,23,9.30
2011,05,16,01,24,9.20
2011,05,16,01,25,9.20
2011,05,16,01,26,9.20
2011,05,16,01,27,9.20
2011,05,16,01,28,9.20
2011,05,16,01,30,9.20
2011,05,16,01,31,9.20
2011,05,16,01,32,9.20
2011,05,16,01,33,9.20
2011,05,16,01,34,9.20
2011,05,16,01,36,9.20
2011,05,16,01,37,9.10
2011,05,16,01,38,9.20
2011,05,16,01,39,9.20
2011,05,16,01,40,9.20
2011,05,16,01,41,9.20
2011,05,16,01,42,9.20
2011,05,16,01,43,9.20
2011,05,16,01,44,9.20
2011,05,16,01,45,9.20
2011,05,16,01,47,9.10
2011,05,16,01,48,9.20
2011,05,16,01,49,9.10
2011,05,16,01,50,9.10
2011,05,16,01,52,9.10
2011,05,16,01,53,9.10
2011,05,16,01,54,9.20
2011,05,16,01,55,9.10
2011,05,16,01,56,9.10
2011,05,16,01,57,9.20
2011,05,16,01,58,9.20
2011,05,16,01,59,9.20
2011,05,16,02,00,9.20
2011,05,16,02,02,9.20
2011,05,16,02,03,9.20
2011,05,16,02,04,9.20
2011,05,16,02,05,9.20
2011,05,16,02,07,9.20
2011,05,16,02,08,9.20
2011,05,16,02,09,9.20
2011,05,16,02,10,9.20
2011,05,16,02,12,9.30
2011,05,16,02,13,9.30
2011,05,16,02,14,9.30
2011,05,16,02,15,9.30
2011,05,16,02,16,9.30
2011,05,16,02,17,9.30
2011,05,16,02,18,9.30
2011,05,16,02,19,9.40
2011,05,16,02,20,9.40
2011,05,16,02,21,9.40
2011,05,16,02,22,9.40
2011,05,16,02,23,9.40
2011,05,16,02,24,9.50
2011,05,16,02,25,9.50
2011,05,16,02,27,9.50
2011,05,16,02,28,9.50
2011,05,16,02,29,9.60
2011,05,16,02,30,9.60
2011,05,16,02,32,9.60
2011,05,16,02,33,9.60
2011,05,16,02,34,9.60
2011,05,16,02,35,9.60
2011,05,16,02,37,9.60
2011,05,16,02,38,9.60
2011,05,16,02,39,9.70
2011,05,16,02,41,9.70
2011,05,16,02,42,9.70
2011,05,16,02,43,9.70
2011,05,16,02,44,9.70
2011,05,16,02,46,9.60
2011,05,16,02,47,9.70
2011,05,16,02,48,9.70
2011,05,16,02,49,9.70
2011,05,16,02,51,9.70
2011,05,16,02,52,9.70
2011,05,16,02,53,9.70
2011,05,16,02,54,9.70
2011,05,16,02,55,9.70
2011,05,16,02,56,9.70
2011,05,16,02,57,9.70
2011,05,16,02,58,9.70
2011,05,16,02,59,9.70
2011,05,16,03,01,9.70
2011,05,16,03,02,9.70
2011,05,16,03,03,9.70
2011,05,16,03,04,9.70
2011,05,16,03,05,9.60
2011,05,16,03,06,9.70
2011,05,16,03,07,9.60
2011,05,16,03,08,9.70
2011,05,16,03,10,9.70
2011,05,16,03,11,9.70
2011,05,16,03,12,9.70
2011,05,16,03,14,9.70
2011,05,16,03,15,9.70
2011,05,16,03,16,9.70
2011,05,16,03,17,9.70
2011,05,16,03,19,9.70
2011,05,16,03,20,9.70
2011,05,16,03,21,9.70
2011,05,16,03,22,9.70
2011,05,16,03,23,9.70
2011,05,16,03,24,9.70
2011,05,16,03,25,9.70
2011,05,16,03,26,9.70
2011,05,16,03,28,9.70
2011,05,16,03,29,9.70
2011,05,16,03,30,9.70
2011,05,16,03,31,9.70
2011,05,16,03,33,9.70
2011,05,16,03,34,9.70
2011,05,16,03,35,9.70
2011,05,16,03,36,9.70
2011,05,16,03,37,9.70
2011,05,16,03,39,9.70
2011,05,16,03,40,9.70
2011,05,16,03,41,9.70
2011,05,16,03,42,9.70
2011,05,16,03,43,9.70
2011,05,16,03,45,9.70
2011,05,16,03,46,9.70
2011,05,16,03,47,9.60
2011,05,16,03,48,9.60
2011,05,16,03,50,9.60
2011,05,16,03,51,9.60
2011,05,16,03,52,9.60
2011,05,16,03,53,9.60
2011,05,16,03,55,9.60
2011,05,16,03,56,9.60
2011,05,16,03,57,9.60
2011,05,16,03,58,9.60
2011,05,16,03,59,9.60
2011,05,16,04,00,9.60
2011,05,16,04,01,9.60
2011,05,16,04,02,9.60
2011,05,16,04,03,9.60
2011,05,16,04,04,9.60
2011,05,16,04,05,9.70
2011,05,16,04,06,9.70
2011,05,16,04,07,9.70
2011,05,16,04,08,9.70
2011,05,16,04,09,9.70
2011,05,16,04,10,9.70
2011,05,16,04,11,9.70
2011,05,16,04,12,9.60
2011,05,16,04,14,9.60
2011,05,16,04,15,9.60
2011,05,16,04,16,9.60
2011,05,16,04,17,9.60
2011,05,16,04,19,9.60
2011,05,16,04,20,9.50
2011,05,16,04,21,9.50
2011,05,16,04,22,9.50
2011,05,16,04,23,9.40
2011,05,16,04,25,9.40
2011,05,16,04,26,9.40
2011,05,16,04,27,9.40
2011,05,16,04,28,9.40
2011,05,16,04,29,9.40
2011,05,16,04,30,9.30
2011,05,16,04,31,9.30
2011,05,16,04,32,9.30
2011,05,16,04,33,9.30
2011,05,16,04,35,9.30
2011,05,16,04,36,9.30
2011,05,16,04,37,9.20
2011,05,16,04,38,9.30
2011,05,16,04,40,9.30
2011,05,16,04,41,9.30
2011,05,16,04,42,9.30
2011,05,16,04,43,9.30
2011,05,16,04,45,9.30
2011,05,16,04,46,9.40
2011,05,16,04,47,9.40
2011,05,16,04,48,9.40
2011,05,16,04,50,9.40
2011,05,16,04,51,9.40
2011,05,16,04,52,9.40
2011,05,16,04,53,9.40
2011,05,16,04,55,9.30
2011,05,16,04,56,9.30
2011,05,16,04,57,9.30
2011,05,16,04,58,9.30
2011,05,16,04,59,9.30
2011,05,16,05,01,9.30
2011,05,16,05,02,9.20
2011,05,16,05,03,9.20
2011,05,16,05,05,9.20
2011,05,16,05,06,9.20
2011,05,16,05,07,9.20
2011,05,16,05,08,9.20
2011,05,16,05,09,9.10
2011,05,16,05,10,9.10
2011,05,16,05,11,9.10
2011,05,16,05,13,9.10
2011,05,16,05,14,9.10
2011,05,16,05,15,9.10
2011,05,16,05,16,9.00
2011,05,16,05,18,9.00
2011,05,16,05,19,8.90
2011,05,16,05,20,8.90
2011,05,16,05,21,8.90
2011,05,16,05,22,8.90
2011,05,16,05,24,8.90
2011,05,16,05,25,8.90
2011,05,16,05,26,8.90
2011,05,16,05,27,8.90
2011,05,16,05,29,8.90
2011,05,16,05,30,8.90
2011,05,16,05,31,8.90
2011,05,16,05,32,8.90
2011,05,16,05,33,8.90
2011,05,16,05,34,9.00
2011,05,16,05,35,9.00
2011,05,16,05,36,9.00
2011,05,16,05,37,9.00
2011,05,16,05,39,9.00
2011,05,16,05,40,9.00
2011,05,16,05,41,9.00
2011,05,16,05,42,9.00
2011,05,16,05,44,9.00
2011,05,16,05,45,9.00
2011,05,16,05,46,8.90
2011,05,16,05,47,8.90
2011,05,16,05,49,8.90
2011,05,16,05,50,8.90
2011,05,16,05,51,8.90
2011,05,16,05,52,8.90
2011,05,16,05,53,8.90
2011,05,16,05,54,8.90
2011,05,16,05,55,8.90
2011,05,16,05,56,8.90
2011,05,16,05,57,8.90
2011,05,16,05,59,8.90
2011,05,16,06,00,8.90
2011,05,16,06,01,8.90
2011,05,16,06,02,8.90
2011,05,16,06,03,8.90
2011,05,16,06,05,8.90
2011,05,16,06,06,8.90
2011,05,16,06,07,8.90
2011,05,16,06,09,8.90
2011,05,16,06,10,8.90
2011,05,16,06,11,8.90
2011,05,16,06,12,8.90
2011,05,16,06,13,8.90
2011,05,16,06,15,8.90
2011,05,16,06,16,8.90
2011,05,16,06,17,8.90
2011,05,16,06,19,8.90
2011,05,16,06,20,8.90
2011,05,16,06,21,8.90
2011,05,16,06,22,8.90
2011,05,16,06,23,8.90
2011,05,16,06,25,8.90
2011,05,16,06,26,9.00
2011,05,16,06,27,9.00
2011,05,16,06,29,9.00
2011,05,16,06,30,9.00
2011,05,16,06,31,9.00
2011,05,16,06,32,9.00
2011,05,16,06,33,9.00
2011,05,16,06,35,9.00
2011,05,16,06,36,9.00
2011,05,16,06,37,9.00
2011,05,16,06,38,9.10
2011,05,16,06,39,9.10
2011,05,16,06,40,9.10
2011,05,16,06,41,9.10
2011,05,16,06,42,9.10
2011,05,16,06,43,9.10
2011,05,16,06,45,9.10
2011,05,16,06,46,9.10
2011,05,16,06,47,9.10
2011,05,16,06,48,9.10
2011,05,16,06,49,9.10
2011,05,16,06,50,9.10
2011,05,16,06,51,9.10
2011,05,16,06,52,9.10
2011,05,16,06,54,9.10
2011,05,16,06,55,9.10
2011,05,16,06,56,9.10
2011,05,16,06,57,9.10
2011,05,16,06,59,9.10
2011,05,16,07,00,9.10
2011,05,16,07,01,9.10
2011,05,16,07,02,9.10
2011,05,16,07,04,9.10
2011,05,16,07,05,9.10
2011,05,16,07,06,9.10
2011,05,16,07,07,9.20
2011,05,16,07,09,9.20
2011,05,16,07,10,9.20
2011,05,16,07,11,9.20
2011,05,16,07,12,9.20
2011,05,16,07,14,9.20
2011,05,16,07,15,9.20
2011,05,16,07,16,9.20
2011,05,16,07,17,9.20
2011,05,16,07,19,9.30
2011,05,16,07,20,9.30
2011,05,16,07,21,9.30
2011,05,16,07,23,9.30
2011,05,16,07,24,9.30
2011,05,16,07,25,9.30
2011,05,16,07,26,9.30
2011,05,16,07,27,9.30
2011,05,16,07,29,9.30
2011,05,16,07,30,9.40
2011,05,16,07,31,9.40
2011,05,16,07,33,9.40
2011,05,16,07,34,9.40
2011,05,16,07,35,9.40
2011,05,16,07,37,9.40
2011,05,16,07,38,9.40
2011,05,16,07,39,9.50
2011,05,16,07,40,9.50
2011,05,16,07,41,9.50
2011,05,16,07,42,9.50
2011,05,16,07,43,9.60
2011,05,16,07,44,9.50
2011,05,16,07,45,9.60
2011,05,16,07,46,9.60
2011,05,16,07,47,9.60
2011,05,16,07,48,9.60
2011,05,16,07,49,9.60
2011,05,16,07,50,9.60
2011,05,16,07,52,9.60
2011,05,16,07,53,9.70
2011,05,16,07,54,9.70
2011,05,16,07,56,9.70
2011,05,16,07,57,9.70
2011,05,16,07,58,9.70
2011,05,16,07,59,9.80
2011,05,16,08,01,9.80
2011,05,16,08,02,9.80
2011,05,16,08,03,9.90
2011,05,16,08,04,9.90
2011,05,16,08,06,9.90
2011,05,16,08,07,10.00
2011,05,16,08,08,10.00
2011,05,16,08,09,10.10
2011,05,16,08,11,10.10
2011,05,16,08,12,10.10
2011,05,16,08,13,10.10
2011,05,16,08,14,10.10
2011,05,16,08,15,10.10
2011,05,16,08,17,10.10
2011,05,16,08,18,10.10
2011,05,16,08,19,10.10
2011,05,16,08,20,10.10
2011,05,16,08,21,10.10
2011,05,16,08,23,10.10
2011,05,16,08,24,10.10
2011,05,16,08,25,10.10
2011,05,16,08,26,10.10
2011,05,16,08,28,10.00
2011,05,16,08,29,10.00
2011,05,16,08,30,10.00
2011,05,16,08,31,10.00
2011,05,16,08,33,9.90
2011,05,16,08,34,9.90
2011,05,16,08,35,9.90
2011,05,16,08,37,10.00
2011,05,16,08,38,10.00
2011,05,16,08,39,10.00
2011,05,16,08,40,10.00
2011,05,16,08,41,10.00
2011,05,16,08,42,10.00
2011,05,16,08,43,10.00
2011,05,16,08,44,10.00
2011,05,16,08,45,10.00
2011,05,16,08,47,10.00
2011,05,16,08,48,10.00
2011,05,16,08,49,9.90
2011,05,16,08,50,9.90
2011,05,16,08,51,9.90
2011,05,16,08,52,9.90
2011,05,16,08,53,9.90
2011,05,16,08,54,9.90
2011,05,16,08,55,9.90
2011,05,16,08,56,9.90
2011,05,16,08,58,9.90
2011,05,16,08,59,9.90
2011,05,16,09,00,9.90
2011,05,16,09,01,9.90
2011,05,16,09,03,9.90
2011,05,16,09,04,9.90
2011,05,16,09,05,9.90
2011,05,16,09,06,9.90
2011,05,16,09,08,9.90
2011,05,16,09,09,9.80
2011,05,16,09,10,9.80
2011,05,16,09,11,9.80
2011,05,16,09,13,9.80
2011,05,16,09,14,9.80
2011,05,16,09,15,9.80
2011,05,16,09,16,9.80
2011,05,16,09,18,9.80
2011,05,16,09,19,9.80
2011,05,16,09,20,9.80
2011,05,16,09,21,9.80
2011,05,16,09,23,9.80
2011,05,16,09,24,9.80
2011,05,16,09,25,9.80
2011,05,16,09,26,9.80
2011,05,16,09,27,9.80
2011,05,16,09,28,9.80
2011,05,16,09,29,9.80
2011,05,16,09,30,9.80
2011,05,16,09,32,9.70
2011,05,16,09,33,9.70
2011,05,16,09,34,9.70
2011,05,16,09,35,9.70
2011,05,16,09,37,9.60
2011,05,16,09,38,9.60
2011,05,16,09,39,9.60
2011,05,16,09,40,9.60
2011,05,16,09,42,9.60
2011,05,16,09,43,9.60
2011,05,16,09,44,9.60
2011,05,16,09,45,9.50
2011,05,16,09,46,9.50
2011,05,16,09,48,9.50
2011,05,16,09,49,9.50
2011,05,16,09,50,9.60
2011,05,16,09,51,9.60
2011,05,16,09,52,9.60
2011,05,16,09,54,9.60
2011,05,16,09,55,9.50
2011,05,16,09,56,9.50
2011,05,16,09,57,9.40
2011,05,16,09,59,9.40
2011,05,16,10,00,9.40
2011,05,16,10,01,9.40
2011,05,16,10,02,9.40
2011,05,16,10,03,9.40
2011,05,16,10,04,9.50
2011,05,16,10,05,9.50
2011,05,16,10,06,9.50
2011,05,16,10,07,9.50
2011,05,16,10,08,9.50
2011,05,16,10,09,9.50
2011,05,16,10,10,9.50
2011,05,16,10,11,9.60
2011,05,16,10,13,9.60
2011,05,16,10,14,9.60
2011,05,16,10,15,9.70
2011,05,16,10,16,9.70
2011,05,16,10,18,9.80
2011,05,16,10,19,9.80
2011,05,16,10,20,9.90
2011,05,16,10,21,9.90
2011,05,16,10,22,9.90
2011,05,16,10,24,10.00
2011,05,16,10,25,10.10
2011,05,16,10,26,10.10
2011,05,16,10,27,10.10
2011,05,16,10,29,10.20
2011,05,16,10,30,10.20
2011,05,16,10,31,10.30
2011,05,16,10,32,10.30
2011,05,16,10,34,10.40
2011,05,16,10,35,10.40
2011,05,16,10,36,10.40
2011,05,16,10,37,10.40
2011,05,16,10,38,10.40
2011,05,16,10,39,10.30
2011,05,16,10,40,10.40
2011,05,16,10,41,10.40
2011,05,16,10,42,10.50
2011,05,16,10,43,10.50
2011,05,16,10,45,10.60
2011,05,16,10,46,10.70
2011,05,16,10,47,10.70
2011,05,16,10,48,10.70
2011,05,16,10,49,10.70
2011,05,16,10,50,10.80
2011,05,16,10,51,10.80
2011,05,16,10,52,10.80
2011,05,16,10,54,10.80
2011,05,16,10,55,10.90
2011,05,16,10,56,10.90
2011,05,16,10,57,10.90
2011,05,16,10,59,10.80
2011,05,16,11,00,10.80
2011,05,16,11,01,10.80
2011,05,16,11,02,10.80
2011,05,16,11,03,10.80
2011,05,16,11,05,10.80
2011,05,16,11,06,10.80
2011,05,16,11,07,10.80
2011,05,16,11,08,10.80
2011,05,16,11,09,10.90
2011,05,16,11,11,11.00
2011,05,16,11,12,11.10
2011,05,16,11,13,11.10
2011,05,16,11,14,11.10
2011,05,16,11,15,11.10
2011,05,16,11,16,11.10
2011,05,16,11,17,11.00
2011,05,16,11,19,10.90
2011,05,16,11,20,10.90
2011,05,16,11,21,10.90
2011,05,16,11,22,10.90
2011,05,16,11,24,10.90
2011,05,16,11,25,10.90
2011,05,16,11,26,11.10
2011,05,16,11,27,11.10
2011,05,16,11,29,11.10
2011,05,16,11,30,11.20
2011,05,16,11,31,11.10
2011,05,16,11,33,11.20
2011,05,16,11,34,11.20
2011,05,16,11,35,11.20
2011,05,16,11,36,11.20
2011,05,16,11,38,11.20
2011,05,16,11,39,11.10
2011,05,16,11,40,11.20
2011,05,16,11,41,11.20
2011,05,16,11,43,11.20
2011,05,16,11,44,11.20
2011,05,16,11,45,11.30
2011,05,16,11,46,11.30
2011,05,16,11,48,11.40
2011,05,16,11,49,11.40
2011,05,16,11,50,11.40
2011,05,16,11,51,11.40
2011,05,16,11,52,11.40
2011,05,16,11,53,11.30
2011,05,16,11,54,11.20
2011,05,16,11,55,11.20
2011,05,16,11,56,11.30
2011,05,16,11,58,11.30
2011,05,16,11,59,11.30
2011,05,16,12,00,11.30
2011,05,16,12,02,11.40
2011,05,16,12,03,11.40
2011,05,16,12,04,11.30
2011,05,16,12,05,11.30
2011,05,16,12,07,11.30
2011,05,16,12,08,11.30
2011,05,16,12,09,11.30
2011,05,16,12,10,11.20
2011,05,16,12,12,11.10
2011,05,16,12,13,11.10
2011,05,16,12,14,11.10
2011,05,16,12,15,11.10
2011,05,16,12,16,11.20
2011,05,16,12,18,11.20
2011,05,16,12,19,11.30
2011,05,16,12,20,11.30
2011,05,16,12,21,11.40
2011,05,16,12,23,11.40
2011,05,16,12,24,11.40
2011,05,16,12,25,11.30
2011,05,16,12,26,11.30
2011,05,16,12,27,11.30
2011,05,16,12,28,11.40
2011,05,16,12,29,11.40
2011,05,16,12,30,11.50
2011,05,16,12,31,11.50
2011,05,16,12,32,11.40
2011,05,16,12,34,11.40
2011,05,16,12,35,11.30
2011,05,16,12,36,11.30
2011,05,16,12,38,11.40
2011,05,16,12,39,11.40
2011,05,16,12,40,11.40
2011,05,16,12,41,11.40
2011,05,16,12,42,11.40
2011,05,16,12,44,11.40
2011,05,16,12,45,11.60
2011,05,16,12,46,11.70
2011,05,16,12,47,11.70
2011,05,16,12,49,11.70
2011,05,16,12,50,11.70
2011,05,16,12,51,11.70
2011,05,16,12,53,11.80
2011,05,16,12,54,11.80
2011,05,16,12,55,11.80
2011,05,16,12,56,11.80
2011,05,16,12,58,11.70
2011,05,16,12,59,11.70
2011,05,16,13,00,11.70
2011,05,16,13,01,11.80
2011,05,16,13,03,11.90
2011,05,16,13,04,12.00
2011,05,16,13,05,12.10
2011,05,16,13,07,12.10
2011,05,16,13,08,12.20
2011,05,16,13,09,12.10
2011,05,16,13,10,12.20
2011,05,16,13,11,12.20
2011,05,16,13,13,12.20
2011,05,16,13,14,12.20
2011,05,16,13,15,12.10
2011,05,16,13,16,12.20
2011,05,16,13,18,12.30
2011,05,16,13,19,12.30
2011,05,16,13,20,12.30
2011,05,16,13,21,12.40
2011,05,16,13,23,12.40
2011,05,16,13,24,12.40
2011,05,16,13,25,12.50
2011,05,16,13,26,12.60
2011,05,16,13,28,12.70
2011,05,16,13,29,12.70
2011,05,16,13,30,12.70
2011,05,16,13,31,12.60
2011,05,16,13,32,12.60
2011,05,16,13,33,12.60
2011,05,16,13,34,12.60
2011,05,16,13,35,12.60
2011,05,16,13,36,12.40
2011,05,16,13,38,12.40
2011,05,16,13,39,12.40
2011,05,16,13,40,12.40
2011,05,16,13,41,12.40
2011,05,16,13,43,12.40
2011,05,16,13,44,12.50
2011,05,16,13,45,12.50
2011,05,16,13,46,12.60
2011,05,16,13,47,12.60
2011,05,16,13,48,12.70
2011,05,16,13,49,12.80
2011,05,16,13,50,12.80
2011,05,16,13,52,12.80
2011,05,16,13,53,12.90
2011,05,16,13,54,12.80
2011,05,16,13,55,12.80
2011,05,16,13,56,12.70
2011,05,16,13,57,12.60
2011,05,16,13,58,12.60
2011,05,16,13,59,12.60
2011,05,16,14,00,12.70
2011,05,16,14,01,12.70
2011,05,16,14,02,12.70
2011,05,16,14,03,12.80
2011,05,16,14,04,12.80
2011,05,16,14,06,12.80
2011,05,16,14,07,12.90
2011,05,16,14,08,12.90
2011,05,16,14,09,12.80
2011,05,16,14,11,12.80
2011,05,16,14,12,12.80
2011,05,16,14,13,12.80
2011,05,16,14,15,12.90
2011,05,16,14,16,12.90
2011,05,16,14,17,13.00
2011,05,16,14,18,13.00
2011,05,16,14,20,13.00
2011,05,16,14,21,12.90
2011,05,16,14,22,12.90
2011,05,16,14,23,12.80
2011,05,16,14,24,12.80
2011,05,16,14,25,12.80
2011,05,16,14,26,12.80
2011,05,16,14,27,12.80
2011,05,16,14,28,12.70
2011,05,16,14,29,12.70
2011,05,16,14,30,12.70
2011,05,16,14,32,12.70
2011,05,16,14,33,12.80
2011,05,16,14,34,12.90
2011,05,16,14,35,12.90
2011,05,16,14,37,12.80
2011,05,16,14,38,12.70
2011,05,16,14,39,12.60
2011,05,16,14,41,12.70
2011,05,16,14,42,12.70
2011,05,16,14,43,12.70
2011,05,16,14,44,12.80
2011,05,16,14,46,12.90
2011,05,16,14,47,13.00
2011,05,16,14,48,13.00
2011,05,16,14,49,13.10
2011,05,16,14,50,13.10
2011,05,16,14,51,13.10
2011,05,16,14,52,13.10
2011,05,16,14,53,13.00
2011,05,16,14,54,13.10
2011,05,16,14,55,13.10
2011,05,16,14,57,13.20
2011,05,16,14,58,13.30
2011,05,16,14,59,13.30
2011,05,16,15,00,13.30
2011,05,16,15,02,13.30
2011,05,16,15,03,13.30
2011,05,16,15,04,13.30
2011,05,16,15,05,13.20
2011,05,16,15,07,13.20
2011,05,16,15,08,13.30
2011,05,16,15,09,13.30
2011,05,16,15,10,13.30
2011,05,16,15,12,13.30
2011,05,16,15,13,13.30
2011,05,16,15,14,13.30
2011,05,16,15,15,13.30
2011,05,16,15,16,13.30
2011,05,16,15,17,13.30
2011,05,16,15,18,13.30
2011,05,16,15,19,13.30
2011,05,16,15,20,13.30
2011,05,16,15,21,13.30
2011,05,16,15,23,13.30
2011,05,16,15,24,13.30
2011,05,16,15,25,13.30
2011,05,16,15,26,13.20
2011,05,16,15,27,13.20
2011,05,16,15,30,13.00
2011,05,16,15,31,13.00
2011,05,16,15,33,12.90
2011,05,16,15,34,12.90
2011,05,16,15,35,12.90
2011,05,16,15,37,13.00
2011,05,16,15,38,12.90
2011,05,16,15,39,12.90
2011,05,16,15,41,12.90
2011,05,16,15,42,12.80
2011,05,16,15,43,12.80
2011,05,16,15,45,12.80
2011,05,16,15,46,12.70
2011,05,16,15,47,12.70
2011,05,16,15,48,12.60
2011,05,16,15,50,12.70
2011,05,16,15,51,12.70
2011,05,16,15,52,12.80
2011,05,16,15,53,12.80
2011,05,16,15,54,12.80
2011,05,16,15,56,12.80
2011,05,16,15,57,12.80
2011,05,16,15,58,12.80
2011,05,16,16,00,12.80
2011,05,16,16,01,12.90
2011,05,16,16,02,13.00
2011,05,16,16,03,12.90
2011,05,16,16,05,12.90
2011,05,16,16,06,12.90
2011,05,16,16,07,12.90
2011,05,16,16,08,12.90
2011,05,16,16,10,12.90
2011,05,16,16,11,13.10
2011,05,16,16,12,13.10
2011,05,16,16,13,13.10
2011,05,16,16,15,13.10
2011,05,16,16,16,13.10
2011,05,16,16,17,13.10
2011,05,16,16,18,13.10
2011,05,16,16,20,13.20
2011,05,16,16,21,13.10
2011,05,16,16,22,13.10
2011,05,16,16,23,13.20
2011,05,16,16,25,13.20
2011,05,16,16,26,12.90
2011,05,16,16,27,12.90
2011,05,16,16,28,13.00
2011,05,16,16,30,13.10
2011,05,16,16,31,13.10
2011,05,16,16,32,13.10
2011,05,16,16,33,13.10
2011,05,16,16,35,13.10
2011,05,16,16,36,13.10
2011,05,16,16,37,13.10
2011,05,16,16,39,13.10
2011,05,16,16,40,13.10
2011,05,16,16,41,13.10
2011,05,16,16,43,13.10
2011,05,16,16,44,13.10
2011,05,16,16,45,13.10
2011,05,16,16,47,13.20
2011,05,16,16,48,13.20
2011,05,16,16,49,13.30
2011,05,16,16,50,13.30
2011,05,16,16,52,13.30
2011,05,16,16,53,13.30
2011,05,16,16,54,13.30
2011,05,16,16,55,13.30
2011,05,16,16,57,13.20
2011,05,16,16,58,13.20
2011,05,16,16,59,13.20
2011,05,16,17,00,13.20
2011,05,16,17,02,13.30
2011,05,16,17,03,13.30
2011,05,16,17,04,13.30
2011,05,16,17,05,13.30
2011,05,16,17,06,13.30
2011,05,16,17,08,13.30
2011,05,16,17,09,13.30
2011,05,16,17,10,13.30
2011,05,16,17,11,13.30
2011,05,16,17,13,13.40
2011,05,16,17,14,13.40
2011,05,16,17,15,13.40
2011,05,16,17,16,13.40
2011,05,16,17,18,13.30
2011,05,16,17,19,13.30
2011,05,16,17,20,13.30
2011,05,16,17,21,13.40
2011,05,16,17,23,13.40
2011,05,16,17,24,13.30
2011,05,16,17,25,13.30
2011,05,16,17,26,13.30
2011,05,16,17,28,13.30
2011,05,16,17,29,13.30
2011,05,16,17,30,13.30
2011,05,16,17,31,13.20
2011,05,16,17,33,13.20
2011,05,16,17,34,13.20
2011,05,16,17,35,13.30
2011,05,16,17,36,13.30
2011,05,16,17,38,13.30
2011,05,16,17,39,13.30
2011,05,16,17,40,13.30
2011,05,16,17,41,13.30
2011,05,16,17,43,13.30
2011,05,16,17,44,13.40
2011,05,16,17,45,13.40
2011,05,16,17,46,13.40
2011,05,16,17,48,13.40
2011,05,16,17,49,13.40
2011,05,16,17,50,13.40
2011,05,16,17,51,13.40
2011,05,16,17,53,13.40
2011,05,16,17,54,13.50
2011,05,16,17,55,13.60
2011,05,16,17,56,13.60
2011,05,16,17,57,13.70
2011,05,16,17,58,13.70
2011,05,16,17,59,13.70
2011,05,16,18,00,13.70
2011,05,16,18,01,13.60
2011,05,16,18,02,13.60
2011,05,16,18,03,13.60
2011,05,16,18,05,13.40
2011,05,16,18,06,13.40
2011,05,16,18,07,13.40
2011,05,16,18,08,13.40
2011,05,16,18,10,13.40
2011,05,16,18,11,13.40
2011,05,16,18,12,13.40
2011,05,16,18,13,13.50
2011,05,16,18,14,13.50
2011,05,16,18,16,13.40
2011,05,16,18,17,13.30
2011,05,16,18,18,13.20
2011,05,16,18,19,13.20
2011,05,16,18,20,13.20
2011,05,16,18,22,13.10
2011,05,16,18,23,13.00
2011,05,16,18,24,12.90
2011,05,16,18,25,12.90
2011,05,16,18,27,12.90
2011,05,16,18,28,12.90
2011,05,16,18,29,13.00
2011,05,16,18,30,13.10
2011,05,16,18,31,13.10
2011,05,16,18,33,13.10
2011,05,16,18,34,12.90
2011,05,16,18,35,12.80
2011,05,16,18,36,12.80
2011,05,16,18,38,12.80
2011,05,16,18,39,12.80
2011,05,16,18,40,12.80
2011,05,16,18,41,12.80
2011,05,16,18,43,12.70
2011,05,16,18,44,12.60
2011,05,16,18,45,12.50
2011,05,16,18,46,12.40
2011,05,16,18,47,12.40
2011,05,16,18,49,12.40
2011,05,16,18,50,12.40
2011,05,16,18,51,12.40
2011,05,16,18,52,12.40
2011,05,16,18,54,12.40
2011,05,16,18,55,12.40
2011,05,16,18,56,12.40
2011,05,16,18,57,12.40
2011,05,16,18,59,12.40
2011,05,16,19,00,12.40
2011,05,16,19,01,12.40
2011,05,16,19,03,12.30
2011,05,16,19,04,12.30
2011,05,16,19,05,12.20
2011,05,16,19,06,12.20
2011,05,16,19,07,12.20
2011,05,16,19,08,12.20
2011,05,16,19,09,12.20
2011,05,16,19,10,12.20
2011,05,16,19,11,12.20
2011,05,16,19,12,12.20
2011,05,16,19,13,12.20
2011,05,16,19,14,12.20
2011,05,16,19,15,12.20
2011,05,16,19,16,12.20
2011,05,16,19,18,12.20
2011,05,16,19,19,12.20
2011,05,16,19,20,12.30
2011,05,16,19,21,12.30
2011,05,16,19,23,12.30
2011,05,16,19,24,12.30
2011,05,16,19,25,12.30
2011,05,16,19,26,12.20
2011,05,16,19,28,12.20
2011,05,16,19,29,12.10
2011,05,16,19,30,12.10
2011,05,16,19,31,12.00
2011,05,16,19,33,11.90
2011,05,16,19,34,11.80
2011,05,16,19,35,11.80
2011,05,16,19,36,11.80
2011,05,16,19,38,11.70
2011,05,16,19,39,11.70
2011,05,16,19,40,11.70
2011,05,16,19,41,11.70
2011,05,16,19,43,11.70
2011,05,16,19,44,11.70
2011,05,16,19,45,11.70
2011,05,16,19,46,11.70
2011,05,16,19,47,11.60
2011,05,16,19,49,11.60
2011,05,16,19,50,11.50
2011,05,16,19,51,11.50
2011,05,16,19,52,11.40
2011,05,16,19,54,11.40
2011,05,16,19,55,11.40
2011,05,16,19,56,11.30
2011,05,16,19,57,11.30
2011,05,16,19,59,11.30
2011,05,16,20,00,11.20
2011,05,16,20,01,11.20
2011,05,16,20,02,11.20
2011,05,16,20,04,11.20
2011,05,16,20,05,11.20
2011,05,16,20,06,11.10
2011,05,16,20,07,11.10
2011,05,16,20,09,11.10
2011,05,16,20,10,11.10
2011,05,16,20,11,11.10
2011,05,16,20,13,11.10
2011,05,16,20,14,11.00
2011,05,16,20,15,11.00
2011,05,16,20,16,10.90
2011,05,16,20,17,10.90
2011,05,16,20,19,10.80
2011,05,16,20,20,10.80
2011,05,16,20,21,10.70
2011,05,16,20,23,10.70
2011,05,16,20,24,10.60
2011,05,16,20,25,10.60
2011,05,16,20,26,10.60
2011,05,16,20,28,10.50
2011,05,16,20,29,10.40
2011,05,16,20,30,10.40
2011,05,16,20,31,10.40
2011,05,16,20,33,10.40
2011,05,16,20,34,10.30
2011,05,16,20,35,10.30
2011,05,16,20,36,10.30
2011,05,16,20,38,10.30
2011,05,16,20,39,10.30
2011,05,16,20,40,10.30
2011,05,16,20,41,10.20
2011,05,16,20,43,10.20
2011,05,16,20,44,10.20
2011,05,16,20,45,10.20
2011,05,16,20,46,10.20
2011,05,16,20,48,10.20
2011,05,16,20,49,10.10
2011,05,16,20,50,10.10
2011,05,16,20,51,10.10
2011,05,16,20,53,10.10
2011,05,16,20,54,10.10
2011,05,16,20,55,10.00
2011,05,16,20,56,10.00
2011,05,16,20,57,10.00
2011,05,16,20,58,10.00
2011,05,16,20,59,9.90
2011,05,16,21,00,9.90
2011,05,16,21,02,9.90
2011,05,16,21,03,9.90
2011,05,16,21,04,9.90
2011,05,16,21,06,9.80
2011,05,16,21,07,9.80
2011,05,16,21,08,9.80
2011,05,16,21,09,9.80
2011,05,16,21,11,9.70
2011,05,16,21,12,9.70
2011,05,16,21,13,9.70
2011,05,16,21,14,9.70
2011,05,16,21,16,9.60
2011,05,16,21,17,9.60
2011,05,16,21,18,9.60